Location: Audinghen
(50.8518°N, 1.6129°E)
Time: 22:43:42
(UTC+00:00)

CZ-2D R/B - Pass Details

Date: 07 August 2020
Orbit: 552 x 639 km, 97.9° (Epoch: 22 September)

Event Time Altitude Azimuth Distance (km) Brightness Sun altitude
Rises 03:20:10 0° 12° (NNE) 2,816 7.9 -9.8°
Reaches altitude 10° 03:22:22 10° 12° (NNE) 1,899 6.9 -9.5°
Maximum altitude 03:26:28 78° 286° (WNW) 586 3.4 -9.0°
Drops below altitude 10° 03:30:26 10° 200° (SSW) 1,844 5.5 -8.6°
Enters shadow 03:30:55 - 200° (SSW) 2,046 5.7 -8.5°
